Simultaneous Nadir Overpasses (SNOs) Predictions

Prediction of SNOs between METOP-A and NOAA-19 Satellite Orbit:

Table of predicted SNOs for the next 14.0 days since TLE Epoch: 8/9/2013
Index Date (METOP-A) Time (METOP-A) Lat,Lon (METOP-A) SZA (METOP-A ) Date (NOAA-19) Time (NOAA-19) Lat,Lon (NOAA-19) SZA (NOAA-19 ) Distance(km) Time Diff (sec)
1 08/17/2013 21:51:53 73.97,-153.58 60.86 08/17/2013 21:50:43 73.99,-155.53 60.98 60.00 70
2 08/17/2013 22:42:43 -73.57, 12.79 119.50 08/17/2013 22:41:35 -73.54, 12.82 119.51 3.36 68
3 08/17/2013 23:33:23 73.56,-179.91 60.51 08/17/2013 23:32:38 73.53,-179.92 60.49 2.48 45
4 08/18/2013 00:24:06 -73.50, -12.71 119.54 08/18/2013 00:23:39 -73.52, -12.65 119.51 2.87 27
5 08/18/2013 01:14:46 73.49, 154.59 60.47 08/18/2013 01:14:42 73.51, 154.61 60.49 3.01 4
6 08/18/2013 02:05:28 -73.48, -38.09 119.53 08/18/2013 02:05:43 -73.50, -38.12 119.51 2.33 15
7 08/18/2013 02:56:08 73.47, 129.21 60.47 08/18/2013 02:56:45 73.44, 129.25 60.44 3.01 37
8 08/18/2013 03:46:50 -73.46, -63.48 119.53 08/18/2013 03:47:46 -73.43, -63.47 119.57 3.40 56
9 08/18/2013 04:37:34 73.25, 103.37 60.30 08/18/2013 04:38:46 73.27, 104.13 60.28 24.30 72




NCC Satellite Simultaneous Nadir Overpasses (SNOs) Prediction Service
